Camdenton, MO

4:59 AM CDT on August 17, 2017 (GMT -0500)
Camdenton

Weather History for KH21 - February, 2013

Change the Weather History Date:

Tuesday, February 26, 2013

  Actual Average (KAIZ) Record (KAIZ)
Temperature  
Mean Temperature 32 °F -  
Max Temperature 33 °F 46 °F 68 °F (2009)
Min Temperature 32 °F 28 °F 8 °F (2014)
Degree Days  
Heating Degree Days 32    
Moisture  
Dew Point 32 °F    
Average Humidity 100    
Maximum Humidity 100    
Minimum Humidity 100    
Precipitation  
Precipitation 0.30 in - - ()
Sea Level Pressure  
Sea Level Pressure 29.51 in    
Wind  
Wind Speed 10 mph (NW)    
Max Wind Speed 15 mph    
Max Gust Speed 22 mph    
Visibility 5 miles    
Events Rain , Snow    
Averages and records for this station are not official NWS values.
T = Trace of Precipitation, MM = Missing Value Source: NWS Daily Summary

Daily Weather History Graph

Daily Weather History Graph

Search for Another Location

Airport or City:

Trip Planner

Search our weather history database for the weather conditions in past years. The results will help you decide how hot, cold, wet, or windy it might be!

Date:

Astronomy

Feb. 26, 2013 Rise Set
Actual Time 6:46 AM CST 6:01 PM CST
Civil Twilight 6:19 AM CST 6:27 PM CST
Nautical Twilight 5:49 AM CST 6:58 PM CST
Astronomical Twilight 5:18 AM CST 7:28 PM CST
Moon 7:16 PM CST (2/26) 6:50 AM CST (2/26)
Length of Visible Light 12h 08m
Length of Day
11h 15m
Full, 99% of the Moon is Illuminated
Feb 26
Full
Mar 4
Last Quarter
Mar 11
New
Mar 19
First Quarter
Mar 27
Full

Hourly Weather History & Observations

Time (CST) Temp. Windchill Dew Point Humidity Pressure Visibility Wind Dir Wind Speed Gust Speed Precip Events Conditions
12:15 AM 32.0 °F 22.5 °F 32.0 °F 100% 29.47 in 3.0 mi NNE 12.7 mph 18.4 mph 0.04 in Snow Light Snow
12:35 AM 32.0 °F 23.0 °F 32.0 °F 100% 29.44 in 4.0 mi NNE 11.5 mph 18.4 mph 0.08 in Rain Light Rain
12:55 AM 32.0 °F 22.5 °F 32.0 °F 100% 29.43 in 7.0 mi NNE 12.7 mph 18.4 mph 0.10 in Rain Light Rain
1:15 AM 32.0 °F 22.5 °F 32.0 °F 100% 29.43 in 5.0 mi NNE 12.7 mph 21.9 mph N/A Rain Rain
1:35 AM 33.8 °F 25.8 °F 33.8 °F 100% 29.43 in 5.0 mi NNE 10.4 mph 18.4 mph 0.03 in Rain Light Rain
1:55 AM 32.0 °F 24.8 °F 32.0 °F 100% 29.42 in 4.0 mi NNE 8.1 mph 18.4 mph 0.05 in Rain Light Rain
2:15 AM 32.0 °F 23.6 °F 32.0 °F 100% 29.40 in 5.0 mi NNE 10.4 mph 16.1 mph 0.01 in Rain Light Rain
2:35 AM 32.0 °F 24.8 °F 32.0 °F 100% 29.39 in 3.0 mi NNE 8.1 mph - 0.02 in Snow Light Snow
2:55 AM 32.0 °F 24.2 °F 32.0 °F 100% 29.38 in 4.0 mi NNE 9.2 mph - 0.03 in Snow Light Snow
3:15 AM 32.0 °F 24.8 °F 32.0 °F 100% 29.38 in 3.0 mi NNE 8.1 mph - 0.02 in Snow Light Snow
3:35 AM 32.0 °F 24.8 °F 32.0 °F 100% 29.37 in 4.0 mi NNE 8.1 mph - 0.03 in Rain Light Rain
3:55 AM 32.0 °F 24.8 °F 32.0 °F 100% 29.36 in 4.0 mi North 8.1 mph - 0.03 in Snow Light Snow
4:15 AM 32.0 °F 26.4 °F 32.0 °F 100% 29.35 in 4.0 mi North 5.8 mph - 0.01 in Rain Light Rain
4:35 AM 32.0 °F 26.4 °F 32.0 °F 100% 29.36 in 1.2 mi NNW 5.8 mph - 0.02 in Snow Snow
4:55 AM 32.0 °F 26.4 °F 32.0 °F 100% 29.35 in 0.8 mi NNW 5.8 mph - 0.04 in Snow Snow
5:15 AM 32.0 °F 25.6 °F 32.0 °F 100% 29.35 in 1.0 mi NNW 6.9 mph - 0.02 in Snow Snow
5:35 AM 32.0 °F 25.6 °F 32.0 °F 100% 29.35 in 0.5 mi NNW 6.9 mph - 0.04 in Snow Snow
5:55 AM 32.0 °F 25.6 °F 32.0 °F 100% 29.35 in 3.0 mi NNW 6.9 mph - 0.05 in Snow Light Snow
6:15 AM 32.0 °F 25.6 °F 32.0 °F 100% 29.35 in 2.0 mi NNW 6.9 mph - N/A Snow Light Snow
6:35 AM 32.0 °F 24.8 °F 32.0 °F 100% 29.35 in 2.0 mi NNW 8.1 mph - N/A Snow Light Snow
6:55 AM 32.0 °F 24.8 °F 32.0 °F 100% 29.35 in 1.5 mi NNW 8.1 mph - N/A Snow Light Snow
7:15 AM 32.0 °F 25.6 °F 32.0 °F 100% 29.36 in 2.0 mi NW 6.9 mph - N/A Snow Light Snow
7:35 AM 32.0 °F 24.8 °F 32.0 °F 100% 29.36 in 2.0 mi NW 8.1 mph - N/A Snow Light Snow
7:55 AM 32.0 °F 24.8 °F 32.0 °F 100% 29.37 in 3.0 mi NW 8.1 mph - N/A Snow Light Snow
8:15 AM 32.0 °F 24.2 °F 32.0 °F 100% 29.37 in 3.0 mi NW 9.2 mph - N/A Snow Light Snow
8:35 AM 32.0 °F 23.6 °F 32.0 °F 100% 29.38 in 2.5 mi NW 10.4 mph - N/A Snow Light Snow
8:55 AM 32.0 °F 23.0 °F 32.0 °F 100% 29.39 in 2.0 mi NW 11.5 mph - N/A Snow Light Snow
9:15 AM 32.0 °F 24.2 °F 32.0 °F 100% 29.40 in 2.5 mi NW 9.2 mph - N/A Snow Light Snow
9:35 AM 32.0 °F 24.2 °F 32.0 °F 100% 29.40 in 4.0 mi NW 9.2 mph - N/A Snow Light Snow
9:55 AM 32.0 °F 24.2 °F 32.0 °F 100% 29.40 in 5.0 mi NNW 9.2 mph - N/A Snow Light Snow
10:15 AM 32.0 °F 24.8 °F 32.0 °F 100% 29.39 in 7.0 mi NNW 8.1 mph - N/A   Overcast
10:35 AM 32.0 °F 23.0 °F 32.0 °F 100% 29.40 in 10.0 mi NNW 11.5 mph 17.3 mph N/A   Overcast
10:55 AM 33.8 °F 27.0 °F 33.8 °F 100% 29.41 in 10.0 mi NW 8.1 mph - N/A   Overcast
11:15 AM 33.8 °F 25.8 °F 33.8 °F 100% 29.43 in 10.0 mi NW 10.4 mph - N/A   Overcast
11:35 AM 33.8 °F 25.8 °F 33.8 °F 100% 29.43 in 10.0 mi NW 10.4 mph - N/A   Overcast
11:55 AM 33.8 °F 26.4 °F 33.8 °F 100% 29.45 in 10.0 mi WNW 9.2 mph - N/A   Overcast
12:15 PM 33.8 °F 25.8 °F 33.8 °F 100% 29.46 in 10.0 mi WNW 10.4 mph - N/A   Overcast
12:35 PM 33.8 °F 25.3 °F 33.8 °F 100% 29.47 in 10.0 mi WNW 11.5 mph - N/A   Overcast
12:55 PM 33.8 °F 25.8 °F 33.8 °F 100% 29.47 in 10.0 mi WNW 10.4 mph - N/A   Overcast
1:15 PM 33.8 °F 25.8 °F 33.8 °F 100% 29.48 in 7.0 mi WNW 10.4 mph - N/A   Overcast
1:35 PM 32.0 °F 22.5 °F 32.0 °F 100% 29.48 in 2.0 mi WNW 12.7 mph 16.1 mph N/A Rain Light Rain
1:55 PM 32.0 °F 22.5 °F 32.0 °F 100% 29.49 in 2.0 mi WNW 12.7 mph - N/A Rain Light Rain
2:15 PM 32.0 °F 22.5 °F 32.0 °F 100% 29.50 in 5.0 mi West 12.7 mph 17.3 mph N/A   Overcast
2:35 PM 32.0 °F 23.0 °F 32.0 °F 100% 29.51 in 10.0 mi West 11.5 mph 16.1 mph N/A   Overcast
2:55 PM 32.0 °F 21.6 °F 32.0 °F 100% 29.52 in 10.0 mi West 15.0 mph - N/A   Overcast
3:15 PM 32.0 °F 23.0 °F 32.0 °F 100% 29.54 in 10.0 mi West 11.5 mph - N/A   Overcast
3:35 PM 32.0 °F 22.1 °F 32.0 °F 100% 29.55 in 10.0 mi West 13.8 mph 18.4 mph N/A   Overcast
3:55 PM 32.0 °F 24.2 °F 32.0 °F 100% 29.56 in 10.0 mi WNW 9.2 mph 19.6 mph N/A   Overcast
4:15 PM 32.0 °F 22.5 °F 32.0 °F 100% 29.57 in 10.0 mi West 12.7 mph 17.3 mph N/A   Overcast
4:35 PM 32.0 °F 23.0 °F 32.0 °F 100% 29.58 in 10.0 mi WNW 11.5 mph 16.1 mph N/A   Overcast
4:55 PM 32.0 °F 23.6 °F 32.0 °F 100% 29.59 in 7.0 mi West 10.4 mph - N/A   Overcast
5:15 PM 32.0 °F 22.1 °F 32.0 °F 100% 29.61 in 7.0 mi West 13.8 mph 18.4 mph N/A   Overcast
5:35 PM 32.0 °F 23.6 °F 32.0 °F 100% 29.62 in 10.0 mi West 10.4 mph 17.3 mph N/A   Overcast
5:55 PM 32.0 °F 22.5 °F 32.0 °F 100% 29.63 in 7.0 mi West 12.7 mph 17.3 mph N/A   Overcast
6:15 PM 32.0 °F 23.0 °F 32.0 °F 100% 29.64 in 7.0 mi West 11.5 mph - N/A   Overcast
6:35 PM 32.0 °F 23.6 °F 32.0 °F 100% 29.65 in 7.0 mi West 10.4 mph - N/A   Overcast
6:55 PM 32.0 °F 24.2 °F 32.0 °F 100% 29.67 in 7.0 mi West 9.2 mph - N/A   Overcast
7:15 PM 32.0 °F 23.6 °F 32.0 °F 100% 29.68 in 7.0 mi West 10.4 mph 16.1 mph N/A   Overcast
7:35 PM 32.0 °F 24.2 °F 32.0 °F 100% 29.69 in 7.0 mi West 9.2 mph - N/A   Overcast
7:55 PM 32.0 °F 24.8 °F 32.0 °F 100% 29.70 in 4.0 mi West 8.1 mph - N/A   Overcast
8:15 PM 32.0 °F 24.2 °F 32.0 °F 100% 29.70 in 2.0 mi West 9.2 mph - N/A Rain Light Rain
8:35 PM 32.0 °F 23.6 °F 32.0 °F 100% 29.72 in 2.5 mi West 10.4 mph 16.1 mph N/A Rain Light Rain
8:55 PM 32.0 °F 24.2 °F 32.0 °F 100% 29.73 in 2.5 mi West 9.2 mph - N/A   Overcast
9:15 PM 32.0 °F 24.2 °F 32.0 °F 100% 29.74 in 2.0 mi West 9.2 mph - N/A Snow Light Snow
9:35 PM 32.0 °F 23.6 °F 32.0 °F 100% 29.75 in 2.0 mi West 10.4 mph - N/A Snow Light Snow
9:55 PM 32.0 °F 23.0 °F 32.0 °F 100% 29.75 in 2.0 mi West 11.5 mph - N/A Rain Light Rain
10:15 PM 32.0 °F 24.2 °F 32.0 °F 100% 29.75 in 2.0 mi West 9.2 mph - N/A Rain Light Rain
10:35 PM 32.0 °F 23.0 °F 32.0 °F 100% 29.75 in 2.5 mi West 11.5 mph 17.3 mph N/A   Overcast
10:55 PM 32.0 °F 23.6 °F 32.0 °F 100% 29.76 in 3.0 mi West 10.4 mph - N/A   Overcast
11:15 PM 32.0 °F 23.0 °F 32.0 °F 100% 29.77 in 5.0 mi West 11.5 mph - N/A   Overcast
11:35 PM 32.0 °F 22.1 °F 32.0 °F 100% 29.78 in 7.0 mi West 13.8 mph 19.6 mph N/A   Overcast
11:55 PM 32.0 °F 23.6 °F 32.0 °F 100% 29.77 in 7.0 mi West 10.4 mph 17.3 mph N/A   Overcast